www.pogodaiklimat.ru

Погода и климат >> Архив погоды >> Россия >> Камчатский край >> Чемурнаут


ПОГОДА в Чемурнауте

  • Прогноз погоды в Чемурнауте
  • Монитор погоды в Чемурнауте

АРХИВ ПОГОДЫ в Чемурнауте

Время (UTC), дата Ветер
(напр.,м/с)
 
Видим.   Явления Облачность Т
(С)
Тd
(С)
f
(%)
Тe
(С)
Тes
(С)
Комфортность P
(гПа)
Po
(гПа)
Тmin
(С)
Tmax
(С)
R
(мм)
R24
(мм)
S
(см)
03 12.09 СЗ 12-15
{15}
20 км 10/4 600 м
[Sc Ac trans Ci fib]
+10.8 +3.0 59 +7 +7 1005.6 1003.9
06 12.09 З 5
{15}
н/о н/о +9.5 +0.6 54 +7 +7 1007.4 1005.7
09 12.09 З 7-11
{11}
20 км 6/3 600 м
[Sc Ac trans Ci fib]
+7.9 +2.7 70 +4 +4 1008.5 1006.8 +11.1
12 12.09 С 6
{12}
н/о н/о +8.6 +1.4 61 +5 +5 1009.5 1007.8
15 12.09 С 7
{10}
20 км 5/0
[Ac trans Ci fib]
+8.1 -0.7 54 +4 +4 1010.8 1009.1
18 12.09 С 7 н/о н/о +7.0 +0.1 61 +3 +3 1011.4 1009.7
21 12.09 С 7 50 км 3/0
[Ci fib]
+7.1 -1.4 55 +3 +3 1012.3 1010.6 +6.8
00 13.09 С 5 н/о н/о +7.9 -1.9 50 +5 +5 1013.5 1011.8
03 13.09 С 4 50 км 3/0
[Ci fib]
+8.2 -2.2 48 +6 +9 1013.3 1011.6
06 13.09 С 4 н/о н/о +8.0 -3.3 45 +5 +5 1013.1 1011.4
09 13.09 Ю 1 50 км 3/0
[Ci fib]
+3.0 -4.2 59 +2 +2 1014.0 1012.3 +8.4
12 13.09 Ю 1 н/о н/о +2.0 -2.9 70 +1 +1 1014.3 1012.5
15 13.09 ЮВ 1 н/о н/о +1.8 -1.2 80 0 0 1014.1 1012.4
18 13.09 Ю 1 н/о н/о +0.9 -1.3 85 -1 -1 1013.8 1012.0
21 13.09 Ю 3 50 км 4/0
[Ac trans Ci fib]
+4.6 +2.0 83 +1 +2 1013.8 1012.1 +0.2
00 14.09 С 3 н/о н/о +10.2 +0.6 51 +9 +9 1013.2 1011.5
03 14.09 С 4 50 км 3/0
[Ci fib]
+10.1 +0.8 52 +8 +11 1012.0 1010.3
06 14.09 СЗ 4 н/о н/о +9.9 +1.6 56 +8 +8 1011.7 1010.0
09 14.09 штиль 0 50 км 4/0
[Ac trans Ci fib]
+4.7 +0.8 76 +4 +4 1012.0 1010.3 +10.7
12 14.09 ЮВ 1 н/о н/о +1.6 -0.7 85 -0 -0 1011.8 1010.0
15 14.09 Ю 6 20 км 4/0 2000 м
[Ac trans Ci fib]
-0.7 -2.6 87 -8 -8 1011.8 1010.0
18 14.09 ЮВ 7 н/о н/о -2.1 -3.8 88 -10 -10 1011.4 1009.6
21 14.09 Ю 5 20 км 4/0 2000 м
[Ac trans Ci fib]
+1.1 -1.2 85 -5 -4 1011.8 1010.0 -2.5
00 15.09 ЮВ 4 н/о н/о +12.2 +3.8 56 +10 +10 1010.9 1009.3
03 15.09 ЮВ 5 50 км 3/0
[]
+14.5 +3.2 47 +13 +15 1009.6 1008.0
06 15.09 ЮВ 7-10
{10}
н/о н/о +12.8 +3.2 52 +10 +10 1009.8 1008.1
09 15.09 Ю 5
{10}
20 км 4/0 2000 м
[Ac trans Ci fib]
+5.9 +2.7 80 +2 +2 1011.5 1009.7 +14.9
12 15.09 ЮВ 5 н/о н/о +3.8 +2.0 88 -1 -1 1012.4 1010.6
15 15.09 ЮВ 7 20 км 4/0 2000 м
[Ac trans Ci fib]
+1.6 +0.1 90 -5 -5 1012.8 1011.0
18 15.09 Ю 6 н/о н/о +0.8 -0.6 90 -6 -6 1014.0 1012.3
21 15.09 Ю 4 20 км 8/4 600 м
[Sc Ac trans Ci fib]
+4.9 +2.7 86 +1 +1 1015.3 1013.6 -0.8
00 16.09 З 7-12
{12}
н/о н/о +11.4 +5.3 66 +8 +8 1016.2 1014.5
03 16.09 СВ 11-15
{17}
20 км 10/4 600 м
[Sc Ac trans Ci fib]
+12.6 +1.5 47 +9 +9 1018.3 1016.6 +15.3
06 16.09 З 4 н/о н/о +9.8 +6.0 77 +7 +7 1017.3 1015.6
09 16.09 ЮЗ 3 20 км 8/4 600 м
[Sc Ac trans Ci fib]
+8.8 +5.5 80 +6 +6 1017.9 1016.2 +11.7
12 16.09 ЮЗ 4 н/о н/о +6.0 +3.2 82 +2 +2 1018.0 1016.2
15 16.09 Ю 4 20 км 6/4 600 м
[Sc Ac trans Ci fib]
+4.6 +1.5 80 0 0 1017.1 1015.4
18 16.09 ЮВ 6 н/о н/о -0.1 -1.4 91 -7 -7 1016.5 1014.7
21 16.09 Ю 6 20 км 10/6 600 м
[Sc Ac trans Ci fib]
+2.7 +0.8 87 -3 -3 1016.0 1014.2 -0.3
00 17.09 СЗ 3 н/о н/о +10.2 +6.4 77 +8 +8 1015.6 1013.9
03 17.09 СЗ 3 10 км слаб. дождь 10/10 300 м
[Frnb Ns]
+9.2 +6.5 83 +7 +7 1014.2 1012.5
06 17.09 С 1 н/о н/о +9.3 +6.5 83 +9 +9 1012.9 1011.2
09 17.09 Ю 1 10 км слаб. дождь 10/10 300 м
[Frnb Ns]
+8.2 +5.8 85 +7 +7 1012.8 1011.1 +10.5 2
12 17.09 Ю 3 н/о н/о +6.9 +4.6 85 +4 +4 1011.5 1009.8
15 17.09 ЮВ 1 20 км 6/4 600 м
[Sc Ac trans Ci fib]
+5.4 +3.3 86 +4 +4 1010.7 1009.0
18 17.09 Ю 3 н/о н/о +3.9 +1.8 86 0 0 1010.1 1008.4
21 17.09 Ю 3 20 км 10/5 600 м
[Sc Ac trans Ci fib]
+6.1 +3.7 85 +3 +3 1010.1 1008.4 +3.0
00 18.09 В 3 н/о н/о +10.9 +6.2 73 +9 +9 1009.6 1007.9
03 18.09 СВ 4 20 км 10/5 600 м
[Sc Ac trans Ci fib]
+11.1 +4.9 66 +9 +10 1009.0 1007.3
06 18.09 СВ 3 н/о н/о +10.1 +5.7 74 +8 +8 1008.7 1007.0
09 18.09 В 2 10 км слаб. дождь 10/10 300 м
[Frnb Ns]
+8.1 +5.0 81 +6 +6 1009.6 1007.9 +12.3 0.3
12 18.09 В 5 н/о н/о +6.8 +2.5 74 +3 +3 1009.9 1008.2
15 18.09 ЮВ 1 20 км 6/3 600 м
[Sc Ac trans Ci fib]
+4.0 +1.5 84 +3 +3 1010.1 1008.4
18 18.09 Ю 3 н/о н/о +2.0 0.0 87 -2 -2 1009.9 1008.2
21 18.09 Ю 3 20 км 10/5 600 м
[Sc Ac trans Ci fib]
+2.2 +0.4 88 -2 -2 1010.4 1008.6 -0.3
00 19.09 З 2 н/о н/о +8.9 +2.8 66 +7 +7 1010.0 1008.3

 

Местоположение метеостанции Чемурнаут (Камчатский край, Россия): широта 60.73 долгота 163.00 высота над уровнем моря 14 м.

В архиве по умолчанию представлена погода в Чемурнауте за последнюю неделю. Архивные данные за месяц целиком и за предыдущие месяцы, начиная с января 2011 года, Вы можете получить, выбрав интересующий диапазон дат из раскрывающегося списка и нажав кнопку "Ввод!".


*Определитесь, кто Вы:
робот инопланетянин человек

Внимание! Время в таблицах - всемирное. Для получения местного времени необходимо прибавить поправку, которая равна 12 ч.

Смотрите также архив погоды в соседних городах и на ближайших метеорологических станциях:

Погода в Оссоре (Камчатский край, Россия) (167 км)
Погода в Тиличиках (Камчатский край, Россия) (167 км)
Погода в Эвенске (Магаданская область, Россия) (242 км)
Погода в Палане (Камчатский край, Россия) (252 км)
Погода в Каменском (Камчатский край, Россия) (258 км)
Погода в Усть-Воямполке (Камчатский край, Россия) (331 км)
Погода на Мысе Озерном (Камчатский край, Россия) (343 км)
Погода в Апуке (Камчатский край, Россия) (362 км)
Погода в Лабазной (Магаданская область, Россия) (370 км)
Погода в Слаутном (Камчатский край, Россия) (372 км)

Пояснения к столбцам:

Ветер - указаны скорость ветра в м/с - средняя за 10 мин, порывы в срок и между сроками (в фигурных скобках) и направление, откуда дует ветер: С - северный, СВ - северо-восточный, В - восточный, ЮВ - юго-восточный, Ю - южный, ЮЗ - юго-западный, З - западный, СЗ - северо-западный.
Видимость - горизонтальная дальность видимости в метрах или километрах. При видимости от 1 до 10 км при отсутствии осадков обычно наблюдается дымка, при ухудшении видимости до 1 км и менее - туман. В сухую погоду видимость может ухудшаться дымом, пылью или мглою.
Явления - указаны атмосферные явления, наблюдавшиеся в срок или в последний час перед сроком; фигурными скобками обозначены явления, наблюдавшиеся между сроками (за 1-3 часа до срока); квадратными скобками обозначены град или гололедные отложения с указанием их диаметра в мм.
Облачность - указаны через наклонную черту общая и нижняя облачность в баллах и высота нижней границы облаков в метрах; квадратными скобками обозначены формы облаков: Ci - перистые, Cs - перисто-слоистые, Cc - перисто-кучевые, Ac - высококучевые, As - высокослоистые, Sc - слоисто-кучевые, Ns - слоисто-дождевые, Cu - кучевые, Cb - кучево-дождевые. Подробнее классификацию облаков см. в Атласе облаков (PDF).
T - Температура воздуха - температура, измеренная на высоте 2 м над землей.
Td - Температура точки росы - температура, при понижении до которой содержащийся в воздухе водяной пар достигнет насыщения.
f - Относительная влажность воздуха - влажноcть воздуха, измеренная на высоте 2 м над землей.
Te - Эффективная температура - температура, которую ощущает одетый по сезону человек в тени. Характеристика душности погоды. При расчете учитывается влияние влажности воздуха и скорости ветра на теплоощущения человека.
Tes - Эффективная температура на солнце - температура, которую ощущает человек, с поправкой на солнечный нагрев. Характеристика знойности погоды. Зависит от высоты солнца над горизонтом, облачности и скорости ветра. Ночью, в пасмурную погоду, а также при ветре 12 м/с и более поправка равна нулю.
P - Атмосферное давление - приведенное к уровню моря атмосферное давление.
Po - Атмосферное давление - измеренное на уровне метеостанции атмосферное давление.
Tmin - Минимальная температура - минимум температуры воздуха на высоте 2 м над землей.
Tmax - Максимальная температура - максимум температуры воздуха на высоте 2 м над землей.
R - Количество осадков - Количество выпавших осадков за период времени, мм. При наведении курсора мыши на число - период времени, за который выпало указанное количество осадков.
R24 - Количество осадков - Количество выпавших осадков за 24 часа, мм.
S - Снежный покров - Высота снежного покрова, см. При наведении курсора мыши на число - состояние снежного покрова и степень покрытия местности в баллах.